Ireland West Airport Knock, Ireland

1:46 AM IST on April 24, 2017 (GMT +0100)
Connaught

Weather History for EIKN - March, 2013

Change the Weather History Date:

Saturday, March 9, 2013

  Actual Average Record
Temperature  
Mean Temperature 43 °F -  
Max Temperature 43 °F - - ()
Min Temperature 40 °F - - ()
Degree Days  
Heating Degree Days 22    
Moisture  
Dew Point 41 °F    
Average Humidity 97    
Maximum Humidity 100    
Minimum Humidity 90    
Precipitation  
Precipitation 0.02 in - - ()
Sea Level Pressure  
Sea Level Pressure 29.52 in    
Wind  
Wind Speed 15 mph ()    
Max Wind Speed 20 mph    
Max Gust Speed 31 mph    
Visibility 3.8 miles    
Events Fog    
T = Trace of Precipitation, MM = Missing Value Source: Averaged Metar Reports

Daily Weather History Graph

Daily Weather History Graph

Search for Another Location

Airport or City:

Trip Planner

Search our weather history database for the weather conditions in past years. The results will help you decide how hot, cold, wet, or windy it might be!

Date:

Astronomy

Mar. 09, 2013 Rise Set
Actual Time 7:04 AM GMT 6:28 PM GMT
Civil Twilight 6:29 AM GMT 7:03 PM GMT
Nautical Twilight 5:48 AM GMT 7:44 PM GMT
Astronomical Twilight 5:06 AM GMT 8:26 PM GMT
Moon 5:37 AM GMT (3/9) 4:01 PM GMT (3/9)
Length of Visible Light 12h 34m
Length of Day
11h 23m
Waning Crescent, 7% of the Moon is Illuminated
Mar 9
Waning Crescent
Mar 11
New
Mar 19
First Quarter
Mar 27
Full
Apr 3
Last Quarter

Hourly Weather History & Observations

Time (GMT) Temp. Windchill Dew Point Humidity Pressure Visibility Wind Dir Wind Speed Gust Speed Precip Events Conditions
12:00 AM 45 °F - 45 °F 99% 29.44 in - ESE 13.4 mph - -  
6:00 AM 42 °F - 42 °F 98% 29.46 in 0 mi East 17.9 mph - - Fog Heavy Fog
7:00 AM 41.0 °F 31.9 °F 41.0 °F 100% 29.44 in 0.3 mi East 19.6 mph 31.1 mph N/A Fog Fog
7:30 AM 41.0 °F 32.8 °F 41.0 °F 100% 29.44 in 0.3 mi East 16.1 mph 27.6 mph N/A Fog Fog
8:00 AM 41.0 °F 32.8 °F 41.0 °F 100% 29.47 in 0.5 mi East 16.1 mph - N/A Fog Light Drizzle
8:30 AM 41.0 °F 31.9 °F 41.0 °F 100% 29.47 in 1.0 mi East 19.6 mph - N/A   Light Drizzle
9:00 AM 41.0 °F 32.8 °F 41.0 °F 100% 29.50 in 1.0 mi East 16.1 mph 27.6 mph N/A   Light Drizzle
9:30 AM 41.0 °F 32.5 °F 41.0 °F 100% 29.50 in 1.2 mi East 17.3 mph - N/A   Light Drizzle
10:00 AM 41.0 °F 32.8 °F 41.0 °F 100% 29.50 in 1.0 mi ESE 16.1 mph - N/A   Light Drizzle
10:30 AM 42.8 °F 35.4 °F 42.8 °F 100% 29.50 in 1.9 mi East 15.0 mph - N/A   Overcast
11:00 AM 42.8 °F 34.5 °F 42.8 °F 100% 29.50 in 3.1 mi East 18.4 mph - N/A   Overcast
11:30 AM 44.6 °F 37.4 °F 42.8 °F 93% 29.50 in 3.1 mi East 16.1 mph - N/A   Overcast
12:00 PM 42.8 °F 35.1 °F 42.8 °F 100% 29.53 in 3.1 mi East 16.1 mph - N/A   Overcast
12:30 PM 42.8 °F 35.4 °F 42.8 °F 100% 29.53 in 4.3 mi East 15.0 mph - N/A   Overcast
1:00 PM 42.8 °F 35.1 °F 42.8 °F 100% 29.56 in 5.0 mi East 16.1 mph 29.9 mph N/A   Overcast
1:30 PM 42.8 °F 34.5 °F 42.8 °F 100% 29.56 in 5.6 mi East 18.4 mph - N/A   Overcast
2:00 PM 42.8 °F 35.1 °F 41.0 °F 93% 29.56 in 6.2 mi East 16.1 mph - N/A   Overcast
2:30 PM 42.8 °F 35.1 °F 41.0 °F 93% 29.56 in 6.2 mi East 16.1 mph 28.8 mph N/A   Overcast
3:00 PM 42.8 °F 34.8 °F 41.0 °F 93% 29.56 in 6.2 mi East 17.3 mph - N/A   Overcast
3:30 PM 42.8 °F 35.1 °F 41.0 °F 93% 29.56 in 6.2 mi East 16.1 mph - N/A   Overcast
4:00 PM 42.8 °F 34.8 °F 41.0 °F 93% 29.56 in 6.2 mi East 17.3 mph - N/A   Overcast
4:30 PM 41.0 °F 32.8 °F 39.2 °F 93% 29.56 in 6.2 mi East 16.1 mph - N/A   Overcast
5:00 PM 41.0 °F 32.8 °F 39.2 °F 93% 29.56 in 6.2 mi East 16.1 mph - N/A   Overcast
6:00 PM 40 °F - 38 °F 90% 29.63 in 12 mi East 15.7 mph - -   Overcast